FDX372 KMEM-KEWR

Flight info

Callsign FDX372
Flight time 2h 2m
Altitude 33000
Route GOETZ7 DIYAB HITMN Q34 GVE PHLBO4
Aircraft MD11/H-SDE1E2E3FGHIJ2J3J4J5M1RWXY/LB1D1

Departure

Time 2026-04-23 09:29
Airport Memphis International Airport (KMEM)

Arrival

Time 2026-04-23 11:31
Airport Newark Liberty International Airport (KEWR)
Time Latitude Longitude Altitude Speed Heading
2026-04-23 09:12 35.06092 -89.95820 284 ft 0 kts
2026-04-23 09:15 35.06090 -89.95820 284 ft 1 kts
2026-04-23 09:16 35.06076 -89.95821 285 ft 2 kts
2026-04-23 09:16 35.06062 -89.95822 285 ft 0 kts
2026-04-23 09:16 35.06051 -89.95821 285 ft 2 kts 344°
2026-04-23 09:16 35.06038 -89.95813 285 ft 2 kts 314°
2026-04-23 09:17 35.06030 -89.95798 286 ft 2 kts 287°
2026-04-23 09:17 35.06028 -89.95787 286 ft 0 kts 270°
2026-04-23 09:17 35.06028 -89.95783 286 ft 0 kts 271°
2026-04-23 09:19 35.06028 -89.95786 286 ft 2 kts 271°
2026-04-23 09:20 35.06030 -89.95866 284 ft 17 kts 271°
2026-04-23 09:20 35.06039 -89.96066 280 ft 28 kts 272°
2026-04-23 09:20 35.06044 -89.96321 274 ft 30 kts 270°
2026-04-23 09:20 35.05981 -89.96513 271 ft 24 kts 212°
2026-04-23 09:21 35.05918 -89.96691 270 ft 28 kts 271°
2026-04-23 09:21 35.05926 -89.96970 268 ft 33 kts 271°
2026-04-23 09:21 35.05931 -89.97253 268 ft 33 kts 271°
2026-04-23 09:21 35.05948 -89.97533 266 ft 33 kts 282°
2026-04-23 09:22 35.06004 -89.97808 264 ft 32 kts 279°
2026-04-23 09:22 35.06013 -89.98085 261 ft 32 kts 271°
2026-04-23 09:22 35.06018 -89.98350 260 ft 27 kts 272°
2026-04-23 09:22 35.05983 -89.98505 259 ft 17 kts 199°
2026-04-23 09:23 35.05861 -89.98505 261 ft 19 kts 176°
2026-04-23 09:23 35.05703 -89.98505 265 ft 25 kts 181°
2026-04-23 09:23 35.05509 -89.98510 269 ft 30 kts 181°
2026-04-23 09:23 35.05289 -89.98512 275 ft 33 kts 180°
2026-04-23 09:24 35.05082 -89.98537 281 ft 25 kts 204°
2026-04-23 09:24 35.04964 -89.98608 283 ft 13 kts 210°
2026-04-23 09:24 35.04926 -89.98694 283 ft 11 kts 246°
2026-04-23 09:24 35.04865 -89.98744 284 ft 10 kts 188°
2026-04-23 09:25 35.04819 -89.98745 284 ft 0 kts 178°
2026-04-23 09:25 35.04769 -89.98743 285 ft 37 kts 178°
2026-04-23 09:25 35.04605 -89.98738 287 ft 0 kts 179°
2026-04-23 09:26 35.04604 -89.98738 287 ft 0 kts 179°
2026-04-23 09:27 35.04603 -89.98738 287 ft 0 kts 179°
2026-04-23 09:28 35.04448 -89.98735 289 ft 60 kts 179°
2026-04-23 09:28 35.03764 -89.98720 298 ft 132 kts 179°
2026-04-23 09:28 35.02651 -89.98692 345 ft 184 kts 178°
2026-04-23 09:29 35.01379 -89.98669 958 ft 182 kts 179°
2026-04-23 09:29 35.00140 -89.98637 1720 ft 176 kts 179°
2026-04-23 09:29 34.98941 -89.98543 2346 ft 180 kts 178°
2026-04-23 09:29 34.97576 -89.98323 2364 ft 214 kts 161°
2026-04-23 09:30 34.96211 -89.97364 2680 ft 237 kts 148°
2026-04-23 09:30 34.94823 -89.96182 3232 ft 251 kts 146°
2026-04-23 09:30 34.93544 -89.94694 3950 ft 265 kts 128°
2026-04-23 09:30 34.92746 -89.92611 4733 ft 278 kts 104°
2026-04-23 09:31 34.92592 -89.90242 5568 ft 286 kts 92°
2026-04-23 09:31 34.92598 -89.87825 6438 ft 290 kts 92°
2026-04-23 09:31 34.92608 -89.85370 7297 ft 294 kts 87°
2026-04-23 09:31 34.93000 -89.82928 8147 ft 299 kts 70°
2026-04-23 09:32 34.93934 -89.80684 9018 ft 302 kts 58°
2026-04-23 09:32 34.95067 -89.78547 9895 ft 303 kts 57°
2026-04-23 09:32 34.96204 -89.76352 10461 ft 318 kts 58°
2026-04-23 09:32 34.97402 -89.73941 10549 ft 348 kts 60°
2026-04-23 09:33 34.98655 -89.71282 10618 ft 378 kts 60°
2026-04-23 09:33 35.00006 -89.68372 10761 ft 403 kts 60°
2026-04-23 09:33 35.01397 -89.65377 11365 ft 414 kts 60°
2026-04-23 09:33 35.02828 -89.62299 12123 ft 421 kts 60°
2026-04-23 09:34 35.04267 -89.59210 12909 ft 426 kts 60°
2026-04-23 09:34 35.05737 -89.56060 13672 ft 430 kts 60°
2026-04-23 09:34 35.07231 -89.52860 14445 ft 435 kts 59°
2026-04-23 09:34 35.08718 -89.49678 15194 ft 439 kts 59°
2026-04-23 09:35 35.10236 -89.46437 15929 ft 442 kts 59°
2026-04-23 09:35 35.11770 -89.43160 16642 ft 446 kts 59°
2026-04-23 09:35 35.13300 -89.39890 17347 ft 449 kts 59°
2026-04-23 09:35 35.14859 -89.36561 18017 ft 453 kts 59°
2026-04-23 09:36 35.16423 -89.33222 18645 ft 457 kts 59°
2026-04-23 09:36 35.18028 -89.29800 19245 ft 462 kts 59°
2026-04-23 09:36 35.19624 -89.26399 19836 ft 466 kts 59°
2026-04-23 09:36 35.21198 -89.22929 20381 ft 470 kts 62°
2026-04-23 09:37 35.22457 -89.19247 20895 ft 476 kts 70°
2026-04-23 09:37 35.23444 -89.15402 21454 ft 480 kts 71°
2026-04-23 09:37 35.24408 -89.11498 21991 ft 483 kts 71°
2026-04-23 09:37 35.25535 -89.07563 22435 ft 486 kts 64°
2026-04-23 09:38 35.26964 -89.03860 22960 ft 488 kts 62°
2026-04-23 09:38 35.28452 -89.00116 23511 ft 491 kts 62°
2026-04-23 09:38 35.29922 -88.96333 24043 ft 494 kts 63°
2026-04-23 09:38 35.31373 -88.92532 24575 ft 497 kts 63°
2026-04-23 09:39 35.32817 -88.88712 25088 ft 499 kts 63°
2026-04-23 09:39 35.34276 -88.84832 25573 ft 503 kts 63°
2026-04-23 09:39 35.35739 -88.80927 26072 ft 505 kts 63°
2026-04-23 09:39 35.37198 -88.77032 26655 ft 505 kts 63°
2026-04-23 09:40 35.38651 -88.73156 27265 ft 505 kts 63°
2026-04-23 09:40 35.40117 -88.69251 27976 ft 502 kts 63°
2026-04-23 09:40 35.41553 -88.65427 28671 ft 499 kts 63°
2026-04-23 09:40 35.43003 -88.61569 29386 ft 496 kts 63°
2026-04-23 09:41 35.44431 -88.57775 30045 ft 494 kts 63°
2026-04-23 09:41 35.45866 -88.53969 30599 ft 493 kts 63°
2026-04-23 09:41 35.47309 -88.50140 31114 ft 493 kts 63°
2026-04-23 09:41 35.48750 -88.46324 31592 ft 492 kts 63°
2026-04-23 09:42 35.50198 -88.42490 32059 ft 492 kts 63°
2026-04-23 09:42 35.51620 -88.38729 32506 ft 491 kts 63°
2026-04-23 09:42 35.53077 -88.34878 32935 ft 491 kts 63°
2026-04-23 09:42 35.54518 -88.31076 33063 ft 495 kts 63°
2026-04-23 09:43 35.55980 -88.27220 33084 ft 494 kts 63°
2026-04-23 09:43 35.58894 -88.19539 33089 ft 492 kts 63°
2026-04-23 09:44 35.61692 -88.11925 33089 ft 491 kts 64°
2026-04-23 09:44 35.64455 -88.04243 33085 ft 492 kts 64°
2026-04-23 09:45 35.67222 -87.96598 33087 ft 491 kts 64°
2026-04-23 09:45 35.70000 -87.88953 33086 ft 491 kts 64°
2026-04-23 09:46 35.72779 -87.81319 33090 ft 490 kts 64°
2026-04-23 09:46 35.75571 -87.73663 33094 ft 491 kts 64°
2026-04-23 09:47 35.78377 -87.65979 33093 ft 491 kts 63°
2026-04-23 09:47 35.81175 -87.58334 33090 ft 491 kts 63°
2026-04-23 09:48 35.83975 -87.50701 33086 ft 490 kts 63°
2026-04-23 09:48 35.86783 -87.43058 33091 ft 491 kts 63°
2026-04-23 09:49 35.89601 -87.35390 33090 ft 491 kts 63°
2026-04-23 09:49 35.92428 -87.27720 33088 ft 491 kts 63°
2026-04-23 09:50 35.95206 -87.20071 33097 ft 491 kts 64°
2026-04-23 09:50 35.97946 -87.12314 33093 ft 490 kts 64°
2026-04-23 09:51 36.00679 -87.04614 33090 ft 490 kts 64°
2026-04-23 09:51 36.03401 -86.96971 33092 ft 490 kts 64°
2026-04-23 09:52 36.06138 -86.89305 33096 ft 490 kts 64°
2026-04-23 09:52 36.08901 -86.81587 33097 ft 490 kts 63°
2026-04-23 09:53 36.11661 -86.73889 33099 ft 490 kts 64°
2026-04-23 09:53 36.14389 -86.66215 33104 ft 490 kts 65°
2026-04-23 09:54 36.16929 -86.58344 33108 ft 490 kts 66°
2026-04-23 09:54 36.19404 -86.50517 33104 ft 490 kts 65°
2026-04-23 09:55 36.21889 -86.42687 33110 ft 490 kts 65°
2026-04-23 09:55 36.24376 -86.34874 33110 ft 490 kts 66°
2026-04-23 09:56 36.26877 -86.27023 33109 ft 490 kts 66°
2026-04-23 09:56 36.29385 -86.19170 33100 ft 491 kts 66°
2026-04-23 09:57 36.31901 -86.11315 33104 ft 491 kts 66°
2026-04-23 09:57 36.34404 -86.03505 33108 ft 490 kts 65°
2026-04-23 09:58 36.36925 -85.95662 33108 ft 490 kts 65°
2026-04-23 09:58 36.39451 -85.87819 33099 ft 490 kts 65°
2026-04-23 09:59 36.41973 -85.80002 33099 ft 490 kts 65°
2026-04-23 09:59 36.44517 -85.72139 33103 ft 490 kts 65°
2026-04-23 10:00 36.47020 -85.64320 33104 ft 490 kts 66°
2026-04-23 10:00 36.49456 -85.56424 33105 ft 489 kts 66°
2026-04-23 10:01 36.51909 -85.48510 33103 ft 489 kts 66°
2026-04-23 10:01 36.54372 -85.40606 33098 ft 489 kts 65°
2026-04-23 10:02 36.56836 -85.32725 33100 ft 490 kts 66°
2026-04-23 10:02 36.59305 -85.24844 33107 ft 490 kts 66°
2026-04-23 10:03 36.61784 -85.16939 33111 ft 490 kts 66°
2026-04-23 10:03 36.64193 -85.09012 33119 ft 490 kts 66°
2026-04-23 10:04 36.66577 -85.01148 33116 ft 490 kts 66°
2026-04-23 10:04 36.68995 -84.93210 33118 ft 490 kts 66°
2026-04-23 10:05 36.71433 -84.85233 33113 ft 491 kts 66°
2026-04-23 10:05 36.73859 -84.77309 33108 ft 491 kts 66°
2026-04-23 10:06 36.76284 -84.69412 33116 ft 491 kts 66°
2026-04-23 10:06 36.78732 -84.61458 33112 ft 491 kts 66°
2026-04-23 10:07 36.81154 -84.53560 33125 ft 491 kts 66°
2026-04-23 10:07 36.83525 -84.45566 33123 ft 491 kts 66°
2026-04-23 10:08 36.85892 -84.37617 33115 ft 490 kts 66°
2026-04-23 10:08 36.88277 -84.29645 33114 ft 490 kts 66°
2026-04-23 10:09 36.91864 -84.17708 33116 ft 491 kts 66°
2026-04-23 10:09 36.94258 -84.09755 33112 ft 492 kts 66°
2026-04-23 10:10 36.96651 -84.01762 33124 ft 493 kts 67°
2026-04-23 10:10 36.98953 -83.93720 33128 ft 493 kts 67°
2026-04-23 10:11 37.01275 -83.85645 33129 ft 491 kts 67°
2026-04-23 10:11 37.03589 -83.77640 33128 ft 491 kts 67°
2026-04-23 10:12 37.05911 -83.69643 33124 ft 491 kts 67°
2026-04-23 10:12 37.08241 -83.61630 33124 ft 492 kts 67°
2026-04-23 10:13 37.10584 -83.53593 33124 ft 492 kts 67°
2026-04-23 10:13 37.12933 -83.45551 33125 ft 493 kts 66°
2026-04-23 10:14 37.15289 -83.37511 33123 ft 493 kts 66°
2026-04-23 10:14 37.17646 -83.29481 33124 ft 493 kts 67°
2026-04-23 10:15 37.20021 -83.21409 33126 ft 493 kts 67°
2026-04-23 10:15 37.22397 -83.13354 33121 ft 494 kts 67°
2026-04-23 10:16 37.24773 -83.05305 33116 ft 494 kts 67°
2026-04-23 10:16 37.27044 -82.97240 33122 ft 493 kts 68°
2026-04-23 10:17 37.29287 -82.89113 33122 ft 494 kts 68°
2026-04-23 10:17 37.31547 -82.80991 33125 ft 494 kts 68°
2026-04-23 10:18 37.33822 -82.72855 33127 ft 494 kts 68°
2026-04-23 10:18 37.36100 -82.64725 33127 ft 494 kts 67°
2026-04-23 10:19 37.38393 -82.56570 33133 ft 495 kts 67°
2026-04-23 10:19 37.40677 -82.48473 33130 ft 495 kts 67°
2026-04-23 10:20 37.42968 -82.40359 33125 ft 495 kts 67°
2026-04-23 10:20 37.45277 -82.32202 33127 ft 494 kts 68°
2026-04-23 10:21 37.47591 -82.24044 33128 ft 495 kts 67°
2026-04-23 10:21 37.49894 -82.15946 33133 ft 495 kts 67°
2026-04-23 10:22 37.52187 -82.07745 33127 ft 496 kts 68°
2026-04-23 10:22 37.54410 -81.99580 33118 ft 496 kts 68°
2026-04-23 10:23 37.56659 -81.91389 33116 ft 496 kts 68°
2026-04-23 10:23 37.58931 -81.83144 33120 ft 496 kts 67°
2026-04-23 10:24 37.61160 -81.74941 33122 ft 496 kts 68°
2026-04-23 10:24 37.63338 -81.66741 33128 ft 496 kts 68°
2026-04-23 10:25 37.65535 -81.58529 33129 ft 496 kts 68°
2026-04-23 10:25 37.67747 -81.50298 33128 ft 496 kts 67°
2026-04-23 10:26 37.69958 -81.42095 33133 ft 496 kts 67°
2026-04-23 10:26 37.72185 -81.33849 33138 ft 495 kts 68°
2026-04-23 10:27 37.74408 -81.25645 33140 ft 496 kts 68°
2026-04-23 10:27 37.76625 -81.17419 33133 ft 497 kts 69°
2026-04-23 10:28 37.78239 -81.08863 33125 ft 503 kts 78°
2026-04-23 10:28 37.78876 -81.00099 33131 ft 505 kts 82°
2026-04-23 10:29 37.79408 -80.91229 33152 ft 504 kts 82°
2026-04-23 10:29 37.79960 -80.82473 33155 ft 504 kts 82°
2026-04-23 10:30 37.80533 -80.73644 33160 ft 504 kts 81°
2026-04-23 10:30 37.81113 -80.64854 33151 ft 503 kts 81°
2026-04-23 10:31 37.81696 -80.56089 33135 ft 503 kts 81°
2026-04-23 10:31 37.82287 -80.47289 33116 ft 503 kts 81°
2026-04-23 10:32 37.82814 -80.38483 33105 ft 503 kts 82°
2026-04-23 10:32 37.83303 -80.29661 33111 ft 503 kts 82°
2026-04-23 10:33 37.83809 -80.20887 33126 ft 503 kts 82°
2026-04-23 10:33 37.84333 -80.12040 33121 ft 504 kts 82°
2026-04-23 10:34 37.84859 -80.03258 33114 ft 503 kts 82°
2026-04-23 10:34 37.85393 -79.94438 33128 ft 503 kts 81°
2026-04-23 10:35 37.85932 -79.85644 33133 ft 503 kts 81°
2026-04-23 10:35 37.86472 -79.76878 33136 ft 503 kts 81°
2026-04-23 10:36 37.86923 -79.68060 33123 ft 505 kts 84°
2026-04-23 10:36 37.87161 -79.59209 33102 ft 504 kts 83°
2026-04-23 10:37 37.87433 -79.50375 33084 ft 504 kts 83°
2026-04-23 10:37 37.87732 -79.41546 33072 ft 504 kts 83°
2026-04-23 10:38 37.88189 -79.32713 33079 ft 503 kts 80°
2026-04-23 10:38 37.89061 -79.23960 33069 ft 502 kts 78°
2026-04-23 10:39 37.90032 -79.15234 33069 ft 501 kts 78°
2026-04-23 10:39 37.90990 -79.06535 33070 ft 501 kts 77°
2026-04-23 10:40 37.91948 -78.97819 33060 ft 501 kts 77°
2026-04-23 10:40 37.92913 -78.89108 33056 ft 501 kts 77°
2026-04-23 10:41 37.93887 -78.80369 33065 ft 501 kts 77°
2026-04-23 10:41 37.94861 -78.71667 33059 ft 501 kts 77°
2026-04-23 10:42 37.95845 -78.62952 33056 ft 501 kts 77°
2026-04-23 10:42 37.96837 -78.54230 33055 ft 501 kts 77°
2026-04-23 10:43 37.97837 -78.45491 33056 ft 502 kts 77°
2026-04-23 10:43 37.98836 -78.36812 33056 ft 502 kts 76°
2026-04-23 10:44 37.99855 -78.28033 33056 ft 503 kts 77°
2026-04-23 10:44 38.00943 -78.19325 33038 ft 500 kts 72°
2026-04-23 10:45 38.03275 -78.11117 33032 ft 491 kts 58°
2026-04-23 10:45 38.06833 -78.03864 33040 ft 487 kts 52°
2026-04-23 10:46 38.10480 -77.96666 33041 ft 485 kts 53°
2026-04-23 10:46 38.14062 -77.89408 33039 ft 485 kts 53°
2026-04-23 10:47 38.17610 -77.82162 33033 ft 485 kts 53°
2026-04-23 10:47 38.21172 -77.74881 33031 ft 485 kts 53°
2026-04-23 10:48 38.24736 -77.67608 33028 ft 485 kts 52°
2026-04-23 10:48 38.28294 -77.60359 33034 ft 484 kts 52°
2026-04-23 10:49 38.31860 -77.53104 33023 ft 485 kts 52°
2026-04-23 10:49 38.35430 -77.45847 33026 ft 485 kts 52°
2026-04-23 10:50 38.39008 -77.38585 33028 ft 484 kts 52°
2026-04-23 10:50 38.42602 -77.31298 33037 ft 484 kts 52°
2026-04-23 10:51 38.46186 -77.24043 33041 ft 484 kts 52°
2026-04-23 10:51 38.49764 -77.16778 33018 ft 484 kts 53°
2026-04-23 10:52 38.53258 -77.09456 33014 ft 485 kts 53°
2026-04-23 10:52 38.56753 -77.02142 33027 ft 485 kts 53°
2026-04-23 10:53 38.60271 -76.94807 33030 ft 484 kts 52°
2026-04-23 10:53 38.63793 -76.87477 33023 ft 484 kts 52°
2026-04-23 10:54 38.67298 -76.80192 33018 ft 484 kts 52°
2026-04-23 10:54 38.70821 -76.72880 33014 ft 484 kts 52°
2026-04-23 10:55 38.74506 -76.65683 33012 ft 478 kts 45°
2026-04-23 10:55 38.79195 -76.59879 33026 ft 467 kts 30°
2026-04-23 10:56 38.84487 -76.55041 33016 ft 465 kts 30°
2026-04-23 10:56 38.89667 -76.50108 33025 ft 464 kts 31°
2026-04-23 10:57 38.94823 -76.45092 33021 ft 463 kts 31°
2026-04-23 10:57 38.99926 -76.40094 33025 ft 463 kts 31°
2026-04-23 10:58 39.04966 -76.34864 33031 ft 467 kts 36°
2026-04-23 10:58 39.07344 -76.32061 32781 ft 469 kts 37°
2026-04-23 10:58 39.09759 -76.29205 32067 ft 469 kts 37°
2026-04-23 10:59 39.12125 -76.26415 31394 ft 468 kts 37°
2026-04-23 10:59 39.14534 -76.23589 30704 ft 470 kts 36°
2026-04-23 10:59 39.16959 -76.20750 29991 ft 472 kts 37°
2026-04-23 10:59 39.19392 -76.17906 29271 ft 475 kts 37°
2026-04-23 11:00 39.21852 -76.15032 28532 ft 478 kts 37°
2026-04-23 11:00 39.24292 -76.12187 27803 ft 481 kts 37°
2026-04-23 11:00 39.26802 -76.09259 27134 ft 485 kts 37°
2026-04-23 11:00 39.29293 -76.06325 26686 ft 489 kts 37°
2026-04-23 11:01 39.31802 -76.03340 26220 ft 491 kts 37°
2026-04-23 11:01 39.34313 -76.00355 25772 ft 491 kts 37°
2026-04-23 11:01 39.36818 -75.97376 25313 ft 487 kts 37°
2026-04-23 11:01 39.39288 -75.94445 24893 ft 483 kts 37°
2026-04-23 11:02 39.41787 -75.91483 24466 ft 480 kts 37°
2026-04-23 11:02 39.44241 -75.88577 24040 ft 478 kts 37°
2026-04-23 11:02 39.46667 -75.85706 23636 ft 476 kts 37°
2026-04-23 11:02 39.49108 -75.82817 23227 ft 474 kts 37°
2026-04-23 11:03 39.51527 -75.79960 22808 ft 472 kts 37°
2026-04-23 11:03 39.53956 -75.77087 22408 ft 470 kts 37°
2026-04-23 11:03 39.56356 -75.74247 21985 ft 467 kts 37°
2026-04-23 11:03 39.58741 -75.71428 21594 ft 464 kts 37°
2026-04-23 11:04 39.61124 -75.68614 21188 ft 462 kts 37°
2026-04-23 11:04 39.63486 -75.65823 20788 ft 460 kts 37°
2026-04-23 11:04 39.65836 -75.63048 20376 ft 457 kts 37°
2026-04-23 11:04 39.68192 -75.60265 20053 ft 455 kts 37°
2026-04-23 11:05 39.70520 -75.57471 19629 ft 455 kts 38°
2026-04-23 11:05 39.72829 -75.54663 19212 ft 452 kts 38°
2026-04-23 11:05 39.75098 -75.51906 18804 ft 449 kts 38°
2026-04-23 11:05 39.77364 -75.49162 18397 ft 447 kts 38°
2026-04-23 11:06 39.81888 -75.43686 17592 ft 442 kts 37°
2026-04-23 11:06 39.84146 -75.40956 17186 ft 441 kts 37°
2026-04-23 11:06 39.86394 -75.38242 16798 ft 440 kts 37°
2026-04-23 11:07 39.88624 -75.35549 16414 ft 438 kts 37°
2026-04-23 11:07 39.90828 -75.32888 15996 ft 437 kts 38°
2026-04-23 11:07 39.93082 -75.30167 15607 ft 435 kts 38°
2026-04-23 11:07 39.95275 -75.27518 15216 ft 433 kts 38°
2026-04-23 11:08 39.97481 -75.24855 14891 ft 431 kts 38°
2026-04-23 11:08 39.99665 -75.22192 14285 ft 431 kts 38°
2026-04-23 11:08 40.01850 -75.19519 13719 ft 427 kts 38°
2026-04-23 11:08 40.04005 -75.16882 13176 ft 424 kts 38°
2026-04-23 11:09 40.06154 -75.14256 12632 ft 420 kts 38°
2026-04-23 11:09 40.08279 -75.11664 12095 ft 416 kts 38°
2026-04-23 11:09 40.10360 -75.09123 11625 ft 409 kts 38°
2026-04-23 11:09 40.12385 -75.06650 11376 ft 392 kts 38°
2026-04-23 11:10 40.14346 -75.04246 11125 ft 377 kts 38°
2026-04-23 11:10 40.16222 -75.01939 10868 ft 363 kts 38°
2026-04-23 11:10 40.18013 -74.99741 10656 ft 348 kts 37°
2026-04-23 11:10 40.19743 -74.97614 10457 ft 334 kts 37°
2026-04-23 11:11 40.21393 -74.95592 10280 ft 320 kts 37°
2026-04-23 11:11 40.22992 -74.93628 10122 ft 308 kts 37°
2026-04-23 11:11 40.24529 -74.91746 10026 ft 298 kts 36°
2026-04-23 11:11 40.26000 -74.89861 9881 ft 294 kts 39°
2026-04-23 11:12 40.27375 -74.87946 9567 ft 290 kts 40°
2026-04-23 11:12 40.28736 -74.86017 9178 ft 285 kts 40°
2026-04-23 11:12 40.30076 -74.84127 9094 ft 278 kts 40°
2026-04-23 11:12 40.31387 -74.82282 9014 ft 278 kts 40°
2026-04-23 11:13 40.32708 -74.80426 8862 ft 278 kts 40°
2026-04-23 11:13 40.34017 -74.78578 8725 ft 278 kts 40°
2026-04-23 11:13 40.35347 -74.76704 8582 ft 279 kts 40°
2026-04-23 11:13 40.36676 -74.74833 8442 ft 278 kts 40°
2026-04-23 11:14 40.37988 -74.72983 8305 ft 278 kts 40°
2026-04-23 11:14 40.39305 -74.71127 8161 ft 277 kts 40°
2026-04-23 11:14 40.40608 -74.69298 8017 ft 276 kts 40°
2026-04-23 11:14 40.41974 -74.67586 7890 ft 262 kts 28°
2026-04-23 11:15 40.43523 -74.66489 7751 ft 243 kts 11°
2026-04-23 11:15 40.45118 -74.66016 7656 ft 229 kts
2026-04-23 11:15 40.46656 -74.65680 7564 ft 222 kts
2026-04-23 11:15 40.48164 -74.65326 7456 ft 220 kts
2026-04-23 11:16 40.49697 -74.64945 7315 ft 221 kts
2026-04-23 11:16 40.51210 -74.64557 7229 ft 222 kts
2026-04-23 11:16 40.52722 -74.64159 7135 ft 221 kts
2026-04-23 11:16 40.54230 -74.63759 7007 ft 220 kts
2026-04-23 11:17 40.55732 -74.63356 6890 ft 219 kts
2026-04-23 11:17 40.57227 -74.62957 6773 ft 218 kts
2026-04-23 11:17 40.58724 -74.62556 6654 ft 217 kts
2026-04-23 11:17 40.60267 -74.62149 6570 ft 235 kts
2026-04-23 11:18 40.61917 -74.61712 6426 ft 245 kts
2026-04-23 11:18 40.63615 -74.61255 6313 ft 252 kts
2026-04-23 11:18 40.65333 -74.60790 6176 ft 253 kts
2026-04-23 11:18 40.67058 -74.60323 6038 ft 252 kts
2026-04-23 11:19 40.68778 -74.59856 5901 ft 250 kts
2026-04-23 11:19 40.70483 -74.59398 5763 ft 249 kts
2026-04-23 11:19 40.72187 -74.58940 5631 ft 249 kts
2026-04-23 11:19 40.73875 -74.58485 5505 ft 249 kts
2026-04-23 11:20 40.75581 -74.58025 5372 ft 248 kts
2026-04-23 11:20 40.77280 -74.57568 5247 ft 248 kts
2026-04-23 11:20 40.78981 -74.57111 5116 ft 248 kts
2026-04-23 11:20 40.80659 -74.56660 4993 ft 247 kts
2026-04-23 11:21 40.82344 -74.56208 4857 ft 247 kts
2026-04-23 11:21 40.84027 -74.55589 4745 ft 251 kts 24°
2026-04-23 11:21 40.85359 -74.54113 4652 ft 261 kts 51°
2026-04-23 11:21 40.86064 -74.51863 4561 ft 270 kts 75°
2026-04-23 11:22 40.86354 -74.49417 4452 ft 269 kts 71°
2026-04-23 11:22 40.86876 -74.47060 4349 ft 267 kts 67°
2026-04-23 11:22 40.87446 -74.44730 4236 ft 266 kts 67°
2026-04-23 11:22 40.87997 -74.42400 4129 ft 265 kts 68°
2026-04-23 11:23 40.88528 -74.40086 4031 ft 265 kts 68°
2026-04-23 11:23 40.89058 -74.37738 3927 ft 264 kts 68°
2026-04-23 11:23 40.89576 -74.35428 3823 ft 264 kts 69°
2026-04-23 11:23 40.90090 -74.33132 3723 ft 264 kts 69°
2026-04-23 11:24 40.90612 -74.30790 3616 ft 263 kts 69°
2026-04-23 11:24 40.91131 -74.28471 3513 ft 263 kts 69°
2026-04-23 11:24 40.91647 -74.26162 3406 ft 262 kts 69°
2026-04-23 11:24 40.92164 -74.23845 3307 ft 261 kts 70°
2026-04-23 11:25 40.92679 -74.21548 3204 ft 259 kts 69°
2026-04-23 11:25 40.93175 -74.19323 3081 ft 248 kts 69°
2026-04-23 11:25 40.93541 -74.17107 2988 ft 242 kts 84°
2026-04-23 11:25 40.93292 -74.14947 2979 ft 238 kts 112°
2026-04-23 11:26 40.92304 -74.13294 2968 ft 227 kts 144°
2026-04-23 11:26 40.90936 -74.12305 2963 ft 223 kts 156°
2026-04-23 11:26 40.89522 -74.11470 2963 ft 222 kts 155°
2026-04-23 11:26 40.88126 -74.10563 2965 ft 223 kts 152°
2026-04-23 11:27 40.86753 -74.09585 2966 ft 223 kts 150°
2026-04-23 11:27 40.85394 -74.08578 2964 ft 223 kts 150°
2026-04-23 11:27 40.83992 -74.07721 2950 ft 221 kts 172°
2026-04-23 11:27 40.82533 -74.07891 2878 ft 210 kts 204°
2026-04-23 11:28 40.81224 -74.08695 2540 ft 201 kts 213°
2026-04-23 11:28 40.80016 -74.09557 2295 ft 192 kts 212°
2026-04-23 11:28 40.78861 -74.10339 2010 ft 182 kts 211°
2026-04-23 11:28 40.77755 -74.11058 1813 ft 177 kts 211°
2026-04-23 11:29 40.76639 -74.11775 1546 ft 178 kts 210°
2026-04-23 11:29 40.75547 -74.12478 1306 ft 173 kts 210°
2026-04-23 11:29 40.74472 -74.13167 1056 ft 168 kts 209°
2026-04-23 11:29 40.73439 -74.13832 789 ft 164 kts 208°
2026-04-23 11:30 40.72433 -74.14476 596 ft 155 kts 208°
2026-04-23 11:30 40.71449 -74.15102 391 ft 158 kts 206°
2026-04-23 11:30 40.70437 -74.15737 153 ft 162 kts 206°
2026-04-23 11:30 40.69430 -74.16372 19 ft 156 kts 206°
2026-04-23 11:31 40.68585 -74.16905 15 ft 104 kts 205°
2026-04-23 11:31 40.68138 -74.17186 16 ft 40 kts 206°
2026-04-23 11:31 40.67989 -74.17337 16 ft 25 kts 240°
2026-04-23 11:31 40.67961 -74.17563 16 ft 25 kts 282°
2026-04-23 11:32 40.68026 -74.17737 16 ft 20 kts 299°
2026-04-23 11:32 40.68085 -74.17889 16 ft 7 kts 297°
2026-04-23 11:32 40.68109 -74.17930 16 ft 6 kts 316°
2026-04-23 11:32 40.68150 -74.18008 16 ft 12 kts 259°
2026-04-23 11:33 40.68073 -74.18079 16 ft 14 kts 203°
2026-04-23 11:33 40.67998 -74.18120 16 ft 6 kts 195°
2026-04-23 11:33 40.67977 -74.18117 16 ft 0 kts 153°
2026-04-23 11:33 40.67970 -74.18110 16 ft 2 kts 141°
2026-04-23 11:34 40.67961 -74.18093 16 ft 2 kts 117°
2026-04-23 11:34 40.67956 -74.18080 16 ft 0 kts 117°